Location: Cardiff
(53.7833°N, 113.6000°W)
Time: 05:45:43
(UTC+00:00)

SO-50 - Pass Details

Date: 14 December 2023
Orbit: 608 x 660 km, 64.6° (Epoch: 02 March)

Event Time Altitude Azimuth Distance (km) Brightness Sun altitude
Exits shadow 14:44:15 - 319° (NW) 2,135 ? -8.2°
Reaches altitude 10° 14:44:32 10° 321° (NW) 2,032 ? -8.2°
Maximum altitude 14:48:47 36° 28° (NNE) 1,007 ? -7.6°
Drops below altitude 10° 14:52:58 10° 96° (E) 1,993 ? -7.1°
Sets 14:55:22 0° 105° (ESE) 2,889 ? -6.8°
